Tracking 19146 objects as of 23-Apr-2018
HD Live streaming from Space Station
objects crossing your sky now

FENGYUN 1C DEB

Track FENGYUN 1C DEB now!
10-day predictions


NORAD ID: 30856
Int'l Code: 1999-025AWS
Perigee: 769.4 km
Apogee: 984.0 km
Inclination: 98.2 °
Period: 102.3 minutes
Semi major axis: 7247 km
RCS: 0.0124 m2 (small)
Launch date: May 10, 1999
Source: People's Republic of China (PRC)
Launch site: Taiyaun Space Center, China (TSC)

Note: This is SATELLITE DEBRIS
aabbcc
Your satellite tracking list
Your tracking list is empty




NASA's NSSDC Master Catalog

Two Line Element Set (TLE):
1 30856U 99025AWS 18112.95354485 +.00001259 +00000-0 +70276-3 0  9995
2 30856 098.2433 104.9885 0147985 055.8925 357.8186 14.07027538570250
Source of the keplerian elements: AFSPC